Location: ??????
(56.0120°N, 39.1740°E)
Time: 11:29:55
(UTC+00:00)

Cosmos 2366 rocket - Pass Details

Date: 14 April 2026
Orbit: 954 x 996 km, 82.9° (Epoch: 10 May)

Event Time Altitude Azimuth Distance (km) Brightness Sun altitude
Rises 17:25:25 0° 171° (S) 3,640 6.6 -8.1°
Reaches altitude 10° 17:27:58 10° 167° (SSE) 2,692 5.9 -8.4°
Maximum altitude 17:33:55 54° 93° (E) 1,156 4.1 -9.1°
Drops below altitude 10° 17:39:53 10° 18° (NNE) 2,697 6.5 -9.8°
Sets 17:42:25 0° 14° (NNE) 3,646 7.3 -10.1°
